Location: Kellogg
(38.0159°N, 90.0546°W)
Time: 00:58:09
(UTC+00:00)

Transit 2A - Pass Details

Date: 15 September 2024
Orbit: 590 x 960 km, 66.7° (Epoch: 09 October)

Event Time Altitude Azimuth Distance (km) Brightness Sun altitude
Rises 08:13:47 0° 341° (NNW) 3,638 9.8 -38.1°
Reaches altitude 10° 08:17:01 10° 356° (N) 2,665 9.1 -37.7°
Maximum altitude 08:21:48 23° 46° (NE) 1,860 8.5 -37.0°
Drops below altitude 10° 08:26:21 10° 97° (E) 2,519 9.1 -36.3°
Sets 08:29:17 0° 112° (ESE) 3,391 9.7 -35.9°
